| time (UTC) | temp C | wind direction | speed KPH | gust KPH | rain 1hr cm | rain 24hr cm | rain mn cm | humidity % | barometer mb |
| 20260506185015 | 25 | 289 | 11.3 | 24.1 | 0.00 | 0.00 | 0.00 | 74 | 1012.3 |
| 20260506184513 | 25 | 346 | 11.3 | 24.1 | 0.00 | 0.00 | 0.00 | 74 | 1012.3 |
| 20260506184011 | 25 | 292 | 9.7 | 20.9 | 0.00 | 0.00 | 0.00 | 75 | 1012.2 |
| 20260506183511 | 26 | 311 | 9.7 | 20.9 | 0.00 | 0.00 | 0.00 | 74 | 1012.2 |
| 20260506183016 | 26 | 341 | 8.0 | 17.7 | 0.00 | 0.00 | 0.00 | 73 | 1012.2 |
| 20260506182513 | 26 | 0 | 8.0 | 17.7 | 0.00 | 0.00 | 0.00 | 76 | 1012.2 |
| 20260506182014 | 25 | 328 | 9.7 | 17.7 | 0.00 | 0.00 | 0.00 | 75 | 1012.2 |
| 20260506181514 | 25 | 355 | 8.0 | 16.1 | 0.00 | 0.00 | 0.00 | 75 | 1012.3 |
| 20260506181012 | 26 | 331 | 8.0 | 16.1 | 0.00 | 0.00 | 0.00 | 75 | 1012.3 |
| 20260506180544 | 25 | 305 | 6.4 | 16.1 | 0.00 | 0.00 | 0.00 | 77 | 1012.1 |
| 20260506180533 | 26 | 349 | 8.0 | 16.1 | 0.00 | 0.00 | 0.00 | 76 | 1012.2 |
| 20260506175509 | 25 | 322 | 4.8 | 12.9 | 0.00 | 0.00 | 0.00 | 78 | 1012.0 |
| 20260506175006 | 24 | 347 | 4.8 | 12.9 | 0.00 | 0.00 | 0.00 | 77 | 1012.0 |
| 20260506174512 | 24 | 285 | 4.8 | 9.7 | 0.00 | 0.00 | 0.00 | 75 | 1011.9 |
| 20260506174242 | 25 | 67 | 4.8 | 14.5 | 0.00 | 0.00 | 0.00 | 73 | 1011.9 |
| 20260506173455 | 25 | 30 | 3.2 | 9.7 | 0.00 | 0.00 | 0.00 | 79 | 1011.9 |
| 20260506172959 | 23 | 73 | 3.2 | 9.7 | 0.00 | 0.00 | 0.00 | 80 | 1011.8 |
| 20260506172528 | 23 | 5 | 3.2 | 11.3 | 0.00 | 0.00 | 0.00 | 78 | 1012.0 |
| 20260506172512 | 23 | 329 | 3.2 | 11.3 | 0.00 | 0.00 | 0.00 | 78 | 1011.9 |
| 20260506171447 | 22 | 107 | 3.2 | 14.5 | 0.00 | 0.00 | 0.00 | 78 | 1012.0 |
| 20260506170949 | 23 | 42 | 6.4 | 14.5 | 0.00 | 0.00 | 0.00 | 80 | 1012.1 |
| 20260506170445 | 23 | 53 | 6.4 | 14.5 | 0.00 | 0.00 | 0.00 | 79 | 1012.0 |
| 20260506165944 | 22 | 42 | 6.4 | 17.7 | 0.00 | 0.00 | 0.00 | 79 | 1012.0 |
| 20260506165726 | 22 | 15 | 6.4 | 17.7 | 0.00 | 0.00 | 0.00 | 81 | 1012.1 |
| 20260506165219 | 21 | 91 | 8.0 | 17.7 | 0.00 | 0.00 | 0.00 | 81 | 1012.2 |
| 20260506164438 | 21 | 19 | 8.0 | 17.7 | 0.00 | 0.00 | 0.00 | 83 | 1012.3 |
| 20260506163933 | 20 | 5 | 8.0 | 16.1 | 0.00 | 0.00 | 0.00 | 85 | 1012.3 |
| 20260506163434 | 19 | 28 | 8.0 | 20.9 | 0.00 | 0.00 | 0.00 | 86 | 1012.4 |
| 20260506162931 | 18 | 17 | 9.7 | 24.1 | 0.00 | 0.00 | 0.00 | 86 | 1012.5 |
| 20260506162427 | 19 | 334 | 11.3 | 27.4 | 0.00 | 0.00 | 0.00 | 85 | 1012.7 |
| 20260506161926 | 19 | 19 | 12.9 | 30.6 | 0.00 | 0.00 | 0.00 | 87 | 1012.7 |
| 20260506161428 | 18 | 329 | 16.1 | 32.2 | 0.00 | 0.00 | 0.00 | 86 | 1012.6 |
| 20260506160926 | 19 | 5 | 19.3 | 37.0 | 0.00 | 0.00 | 0.00 | 87 | 1013.1 |
| 20260506160716 | 19 | 345 | 19.3 | 43.5 | 0.00 | 0.00 | 0.00 | 86 | 1013.4 |
| 20260506155925 | 19 | 9 | 17.7 | 43.5 | 0.00 | 0.00 | 0.00 | 86 | 1013.2 |
| 20260506155425 | 20 | 346 | 16.1 | 35.4 | 0.00 | 0.00 | 0.00 | 86 | 1012.7 |
| 20260506154925 | 20 | 26 | 14.5 | 35.4 | 0.00 | 0.00 | 0.00 | 85 | 1012.9 |
| 20260506154424 | 20 | 315 | 14.5 | 27.4 | 0.00 | 0.00 | 0.00 | 85 | 1012.6 |
| 20260506153922 | 20 | 5 | 17.7 | 30.6 | 0.00 | 0.00 | 0.00 | 85 | 1012.5 |
| 20260506153422 | 21 | 24 | 16.1 | 30.6 | 0.00 | 0.00 | 0.00 | 85 | 1012.5 |
| 20260506152919 | 21 | 339 | 14.5 | 30.6 | 0.00 | 0.00 | 0.00 | 84 | 1012.6 |
| 20260506152416 | 21 | 331 | 17.7 | 33.8 | 0.00 | 0.00 | 0.00 | 84 | 1012.5 |
| 20260506151913 | 22 | 355 | 17.7 | 33.8 | 0.00 | 0.00 | 0.00 | 82 | 1012.2 |
| 20260506151722 | 23 | 345 | 11.3 | 29.0 | 0.00 | 0.00 | 0.00 | 82 | 1012.0 |
| 20260506150908 | 25 | 332 | 3.2 | 24.1 | 0.00 | 0.00 | 0.00 | 83 | 1012.4 |
| 20260506150409 | 25 | 184 | 3.2 | 8.0 | 0.00 | 0.00 | 0.00 | 86 | 1011.8 |
| 20260506145908 | 25 | 184 | 4.8 | 9.7 | 0.00 | 0.00 | 0.00 | 86 | 1011.8 |
| 20260506145632 | 25 | 173 | 4.8 | 11.3 | 0.00 | 0.00 | 0.00 | 86 | 1011.5 |
| 20260506144907 | 25 | 178 | 6.4 | 11.3 | 0.00 | 0.00 | 0.00 | 86 | 1011.4 |
| 20260506144637 | 25 | 162 | 6.4 | 14.5 | 0.00 | 0.00 | 0.00 | 86 | 1011.1 |
| 20260506143902 | 25 | 165 | 8.0 | 17.7 | 0.00 | 0.00 | 0.00 | 86 | 1011.0 |
| 20260506143403 | 25 | 155 | 4.8 | 17.7 | 0.00 | 0.00 | 0.00 | 86 | 1011.0 |
| 20260506142902 | 25 | 142 | 6.4 | 14.5 | 0.00 | 0.00 | 0.00 | 87 | 1010.8 |
| 20260506142402 | 25 | 142 | 6.4 | 14.5 | 0.00 | 0.00 | 0.00 | 86 | 1010.8 |
| 20260506141905 | 25 | 136 | 6.4 | 12.9 | 0.00 | 0.00 | 0.00 | 87 | 1010.5 |
| 20260506141401 | 25 | 99 | 6.4 | 12.9 | 0.00 | 0.00 | 0.00 | 88 | 1010.4 |
| 20260506140946 | 24 | 115 | 4.8 | 0.0 | 0.00 | 0.00 | 0.00 | 90 | 1010.6 |
| 20260506140932 | 25 | 147 | 4.8 | 12.9 | 0.00 | 0.00 | 0.00 | 90 | 1010.3 |
| 20260506140210 | 24 | 132 | 3.2 | 3.2 | 0.00 | 0.00 | 0.00 | 90 | 1010.8 |
| 20260506140153 | 24 | 132 | 3.2 | 3.2 | 0.00 | 0.00 | 0.00 | 90 | 1010.8 |
| 20260506135011 | 24 | 134 | 6.4 | 8.0 | 0.00 | 0.00 | 0.00 | 90 | 1010.1 |
| 20260506134506 | 24 | 134 | 6.4 | 12.9 | 0.00 | 0.00 | 0.00 | 90 | 1010.1 |
| 20260506133449 | 24 | 101 | 8.0 | 12.9 | 0.00 | 0.00 | 0.00 | 90 | 1010.1 |
| 20260506132949 | 24 | 120 | 8.0 | 14.5 | 0.00 | 0.00 | 0.00 | 90 | 1010.2 |
| 20260506132444 | 24 | 113 | 8.0 | 14.5 | 0.00 | 0.00 | 0.00 | 90 | 1010.1 |
| 20260506131944 | 24 | 117 | 9.7 | 14.5 | 0.00 | 0.00 | 0.00 | 90 | 1010.1 |
| 20260506131444 | 24 | 130 | 9.7 | 14.5 | 0.00 | 0.00 | 0.00 | 90 | 1010.0 |
| 20260506130942 | 24 | 103 | 8.0 | 16.1 | 0.00 | 0.00 | 0.00 | 90 | 1009.8 |
| 20260506130442 | 24 | 130 | 6.4 | 16.1 | 0.00 | 0.00 | 0.00 | 90 | 1009.8 |
| 20260506125943 | 24 | 109 | 6.4 | 12.9 | 0.00 | 0.00 | 0.00 | 90 | 1010.0 |
| 20260506125722 | 23 | 109 | 6.4 | 12.9 | 0.00 | 0.00 | 0.00 | 90 | 1009.8 |
| 20260506124936 | 23 | 117 | 6.4 | 14.5 | 0.00 | 0.00 | 0.00 | 90 | 1009.5 |
| 20260506124435 | 23 | 118 | 6.4 | 14.5 | 0.00 | 0.00 | 0.00 | 90 | 1009.5 |
| 20260506123936 | 23 | 118 | 4.8 | 12.9 | 0.00 | 0.00 | 0.00 | 90 | 1009.5 |
| 20260506123435 | 23 | 118 | 4.8 | 11.3 | 0.00 | 0.00 | 0.00 | 90 | 1009.5 |
| 20260506122930 | 23 | 121 | 4.8 | 11.3 | 0.00 | 0.00 | 0.00 | 90 | 1009.5 |
| 20260506122429 | 23 | 114 | 4.8 | 11.3 | 0.00 | 0.00 | 0.00 | 90 | 1009.5 |
| 20260506121930 | 23 | 113 | 4.8 | 9.7 | 0.00 | 0.00 | 0.00 | 89 | 1009.4 |
| 20260506121430 | 23 | 113 | 4.8 | 9.7 | 0.00 | 0.00 | 0.00 | 89 | 1009.5 |
| 20260506120923 | 23 | 112 | 4.8 | 9.7 | 0.00 | 0.00 | 0.00 | 89 | 1009.5 |
| 20260506120420 | 23 | 115 | 3.2 | 6.4 | 0.00 | 0.00 | 0.00 | 89 | 1009.5 |
| 20260506115916 | 23 | 115 | 4.8 | 6.4 | 0.00 | 0.00 | 0.00 | 89 | 1009.5 |
| 20260506115701 | 23 | 115 | 4.8 | 6.4 | 0.00 | 0.00 | 0.00 | 89 | 1009.4 |
| 20260506114911 | 23 | 115 | 4.8 | 8.0 | 0.00 | 0.00 | 0.00 | 89 | 1009.4 |
| 20260506114411 | 23 | 118 | 4.8 | 8.0 | 0.00 | 0.00 | 0.00 | 89 | 1009.5 |
| 20260506113909 | 23 | 127 | 3.2 | 6.4 | 0.00 | 0.00 | 0.00 | 89 | 1009.5 |
| 20260506113407 | 23 | 130 | 1.6 | 4.8 | 0.00 | 0.00 | 0.00 | 89 | 1009.5 |
| 20260506112909 | 24 | 130 | 1.6 | 3.2 | 0.00 | 0.00 | 0.00 | 89 | 1009.6 |
| 20260506112409 | 24 | 130 | 1.6 | 4.8 | 0.00 | 0.00 | 0.00 | 89 | 1009.6 |
| 20260506111907 | 24 | 130 | 1.6 | 4.8 | 0.00 | 0.00 | 0.00 | 89 | 1009.5 |
| 20260506111408 | 24 | 130 | 1.6 | 3.2 | 0.00 | 0.00 | 0.00 | 89 | 1009.8 |
| 20260506110937 | 24 | 131 | 3.2 | 6.4 | 0.00 | 0.00 | 0.00 | 89 | 1009.6 |
| 20260506110929 | 24 | 130 | 1.6 | 4.8 | 0.00 | 0.00 | 0.00 | 89 | 1009.6 |
| 20260506105906 | 24 | 131 | 3.2 | 6.4 | 0.00 | 0.00 | 0.00 | 89 | 1009.5 |
| 20260506105339 | 24 | 131 | 3.2 | 6.4 | 0.00 | 0.00 | 0.00 | 89 | 1009.6 |
| 20260506105113 | 24 | 146 | 3.2 | 4.8 | 0.00 | 0.00 | 0.00 | 89 | 1009.4 |
| 20260506104335 | 24 | 151 | 3.2 | 6.4 | 0.00 | 0.00 | 0.00 | 89 | 1009.4 |
| 20260506103835 | 24 | 153 | 3.2 | 6.4 | 0.00 | 0.00 | 0.00 | 89 | 1009.4 |
| 20260506103335 | 24 | 152 | 1.6 | 4.8 | 0.00 | 0.00 | 0.00 | 89 | 1009.5 |
| 20260506102830 | 24 | 152 | 0.0 | 4.8 | 0.00 | 0.00 | 0.00 | 89 | 1009.4 |
| 20260506102637 | 24 | 152 | 3.2 | 9.7 | 0.00 | 0.00 | 0.00 | 89 | 1009.4 |
| 20260506102628 | 24 | 152 | 1.6 | 9.7 | 0.00 | 0.00 | 0.00 | 89 | 1009.4 |
| 20260506101329 | 24 | 170 | 4.8 | 9.7 | 0.00 | 0.00 | 0.00 | 89 | 1009.3 |
| 20260506101100 | 24 | 156 | 4.8 | 12.9 | 0.00 | 0.00 | 0.00 | 89 | 1009.3 |
| 20260506100332 | 24 | 171 | 6.4 | 12.9 | 0.00 | 0.00 | 0.00 | 89 | 1009.1 |
| 20260506095821 | 24 | 144 | 6.4 | 12.9 | 0.00 | 0.00 | 0.00 | 89 | 1009.0 |
| 20260506095311 | 24 | 159 | 6.4 | 12.9 | 0.00 | 0.00 | 0.00 | 89 | 1008.9 |
| 20260506094810 | 24 | 117 | 6.4 | 14.5 | 0.00 | 0.00 | 0.00 | 89 | 1008.9 |
| 20260506094310 | 24 | 187 | 8.0 | 17.7 | 0.00 | 0.00 | 0.00 | 89 | 1008.9 |
| 20260506093825 | 24 | 159 | 8.0 | 17.7 | 0.00 | 0.00 | 0.00 | 89 | 1008.9 |
| 20260506093311 | 24 | 196 | 8.0 | 16.1 | 0.00 | 0.00 | 0.00 | 89 | 1008.8 |
| 20260506092811 | 24 | 176 | 8.0 | 17.7 | 0.00 | 0.00 | 0.00 | 89 | 1008.8 |
| 20260506092310 | 24 | 210 | 6.4 | 17.7 | 0.00 | 0.00 | 0.00 | 89 | 1008.8 |
| 20260506092053 | 24 | 188 | 6.4 | 16.1 | 0.00 | 0.00 | 0.00 | 89 | 1008.7 |
| 20260506091307 | 24 | 155 | 6.4 | 16.1 | 0.00 | 0.00 | 0.00 | 89 | 1008.6 |
| 20260506090805 | 24 | 166 | 6.4 | 14.5 | 0.00 | 0.00 | 0.00 | 89 | 1008.6 |
| 20260506090307 | 24 | 145 | 8.0 | 14.5 | 0.00 | 0.00 | 0.00 | 88 | 1008.5 |
| 20260506085836 | 24 | 130 | 6.4 | 16.1 | 0.00 | 0.00 | 0.00 | 88 | 1008.3 |
| 20260506085807 | 24 | 130 | 6.4 | 16.1 | 0.00 | 0.00 | 0.00 | 88 | 1008.3 |
| 20260506084245 | 24 | 147 | 9.7 | 17.7 | 0.00 | 0.00 | 0.00 | 88 | 1008.4 |
| 20260506083753 | 24 | 168 | 8.0 | 19.3 | 0.00 | 0.00 | 0.00 | 88 | 1008.4 |
| 20260506083244 | 24 | 180 | 8.0 | 19.3 | 0.00 | 0.00 | 0.00 | 88 | 1008.5 |
| 20260506082744 | 24 | 152 | 9.7 | 17.7 | 0.00 | 0.00 | 0.00 | 88 | 1008.4 |
| 20260506082241 | 24 | 149 | 9.7 | 19.3 | 0.00 | 0.00 | 0.00 | 88 | 1008.4 |
| 20260506081739 | 24 | 0 | 9.7 | 19.3 | 0.00 | 0.00 | 0.00 | 88 | 1008.4 |
| 20260506081239 | 24 | 153 | 11.3 | 20.9 | 0.00 | 0.00 | 0.00 | 88 | 1008.5 |
| 20260506080733 | 24 | 152 | 11.3 | 20.9 | 0.00 | 0.00 | 0.00 | 88 | 1008.6 |
| 20260506080234 | 24 | 158 | 11.3 | 17.7 | 0.00 | 0.00 | 0.00 | 88 | 1008.6 |
| 20260506073233 | 24 | 179 | 12.9 | 24.1 | 0.00 | 0.00 | 0.00 | 88 | 1008.9 |
| 20260506072723 | 24 | 161 | 14.5 | 24.1 | 0.00 | 0.00 | 0.00 | 88 | 1008.9 |
| 20260506072224 | 24 | 146 | 12.9 | 24.1 | 0.00 | 0.00 | 0.00 | 88 | 1008.9 |
| 20260506072004 | 24 | 0 | 12.9 | 25.7 | 0.00 | 0.00 | 0.00 | 88 | 1009.0 |
| 20260506071218 | 24 | 157 | 14.5 | 29.0 | 0.00 | 0.00 | 0.00 | 88 | 1009.1 |
| 20260506070717 | 24 | 136 | 16.1 | 29.0 | 0.00 | 0.00 | 0.00 | 88 | 1009.0 |
| 20260506070221 | 24 | 186 | 14.5 | 30.6 | 0.00 | 0.00 | 0.00 | 88 | 1008.8 |
| 20260506062206 | 24 | 0 | 12.9 | 22.5 | 0.00 | 0.00 | 0.00 | 88 | 1008.9 |
| 20260506061705 | 24 | 172 | 12.9 | 24.1 | 0.00 | 0.00 | 0.00 | 88 | 1008.8 |
| 20260506061203 | 24 | 127 | 12.9 | 24.1 | 0.00 | 0.00 | 0.00 | 88 | 1009.0 |
| 20260506060703 | 24 | 125 | 11.3 | 24.1 | 0.00 | 0.00 | 0.00 | 88 | 1008.8 |
| 20260506060201 | 24 | 150 | 11.3 | 24.1 | 0.00 | 0.00 | 0.00 | 88 | 1008.8 |
| 20260506051201 | 24 | 145 | 12.9 | 22.5 | 0.00 | 0.00 | 0.00 | 88 | 1008.9 |
| 20260506050701 | 24 | 146 | 11.3 | 22.5 | 0.00 | 0.00 | 0.00 | 88 | 1008.9 |
| 20260506050427 | 24 | 190 | 11.3 | 22.5 | 0.00 | 0.00 | 0.00 | 88 | 1008.8 |
| 20260506044634 | 24 | 141 | 12.9 | 25.7 | 0.00 | 0.00 | 0.00 | 88 | 1008.8 |
| 20260506044134 | 24 | 0 | 14.5 | 25.7 | 0.00 | 0.00 | 0.00 | 88 | 1008.9 |
| 20260506043634 | 24 | 163 | 12.9 | 24.1 | 0.00 | 0.00 | 0.00 | 88 | 1008.9 |
| 20260506043134 | 25 | 0 | 12.9 | 25.7 | 0.00 | 0.00 | 0.00 | 87 | 1008.8 |
| 20260506042633 | 25 | 157 | 12.9 | 25.7 | 0.00 | 0.00 | 0.00 | 87 | 1008.9 |
| 20260506042134 | 25 | 148 | 11.3 | 22.5 | 0.00 | 0.00 | 0.00 | 87 | 1008.9 |
| 20260506041633 | 25 | 148 | 11.3 | 22.5 | 0.00 | 0.00 | 0.00 | 87 | 1008.7 |
| 20260506041412 | 25 | 144 | 12.9 | 22.5 | 0.00 | 0.00 | 0.00 | 87 | 1008.7 |
| 20260506040632 | 25 | 172 | 12.9 | 22.5 | 0.00 | 0.00 | 0.00 | 87 | 1008.6 |
| 20260506040425 | 25 | 128 | 11.3 | 20.9 | 0.00 | 0.00 | 0.00 | 87 | 1008.6 |
| 20260506035629 | 25 | 0 | 11.3 | 20.9 | 0.00 | 0.00 | 0.00 | 86 | 1008.6 |
| 20260506035131 | 25 | 133 | 12.9 | 22.5 | 0.00 | 0.00 | 0.00 | 86 | 1008.4 |
| 20260506034629 | 25 | 132 | 12.9 | 22.5 | 0.00 | 0.00 | 0.00 | 86 | 1008.3 |
| 20260506034130 | 25 | 164 | 11.3 | 22.5 | 0.00 | 0.00 | 0.00 | 86 | 1008.3 |
| 20260506033629 | 25 | 127 | 11.3 | 19.3 | 0.00 | 0.00 | 0.00 | 86 | 1008.5 |
| 20260506033351 | 25 | 140 | 11.3 | 20.9 | 0.00 | 0.00 | 0.00 | 85 | 1008.5 |
| 20260506032630 | 25 | 157 | 11.3 | 20.9 | 0.00 | 0.00 | 0.00 | 85 | 1008.3 |
| 20260506032131 | 25 | 144 | 11.3 | 20.9 | 0.00 | 0.00 | 0.00 | 85 | 1008.1 |
| 20260506031914 | 25 | 109 | 11.3 | 20.9 | 0.00 | 0.00 | 0.00 | 84 | 1008.1 |
| 20260506031127 | 25 | 134 | 11.3 | 20.9 | 0.00 | 0.00 | 0.00 | 84 | 1008.0 |
| 20260506030625 | 25 | 138 | 11.3 | 19.3 | 0.00 | 0.00 | 0.00 | 84 | 1008.0 |
| 20260506030126 | 25 | 129 | 11.3 | 20.9 | 0.00 | 0.00 | 0.00 | 84 | 1007.8 |
| 20260506025624 | 25 | 133 | 9.7 | 20.9 | 0.00 | 0.00 | 0.00 | 83 | 1008.0 |
| 20260506025124 | 25 | 136 | 9.7 | 17.7 | 0.00 | 0.00 | 0.00 | 83 | 1008.0 |
| 20260506024622 | 25 | 139 | 8.0 | 14.5 | 0.00 | 0.00 | 0.00 | 83 | 1007.7 |
| 20260506024120 | 25 | 118 | 8.0 | 14.5 | 0.00 | 0.00 | 0.00 | 83 | 1007.7 |
| 20260506023623 | 25 | 140 | 8.0 | 14.5 | 0.00 | 0.00 | 0.00 | 83 | 1007.7 |
| 20260506023123 | 25 | 140 | 8.0 | 14.5 | 0.00 | 0.00 | 0.00 | 83 | 1007.5 |
| 20260506022622 | 25 | 125 | 8.0 | 14.5 | 0.00 | 0.00 | 0.00 | 82 | 1007.5 |
| 20260506022143 | 26 | 148 | 8.0 | 14.5 | 0.00 | 0.00 | 0.00 | 82 | 1007.3 |
| 20260506022133 | 25 | 140 | 8.0 | 14.5 | 0.00 | 0.00 | 0.00 | 82 | 1007.3 |
| 20260506021121 | 26 | 104 | 8.0 | 14.5 | 0.00 | 0.00 | 0.00 | 82 | 1007.3 |
| 20260506020612 | 26 | 118 | 9.7 | 14.5 | 0.00 | 0.00 | 0.00 | 82 | 1007.2 |
| 20260506020112 | 26 | 144 | 9.7 | 16.1 | 0.00 | 0.00 | 0.00 | 81 | 1006.9 |
| 20260506015615 | 26 | 0 | 9.7 | 16.1 | 0.00 | 0.00 | 0.00 | 81 | 1006.8 |
| 20260506015112 | 26 | 121 | 6.4 | 14.5 | 0.00 | 0.00 | 0.00 | 81 | 1006.7 |
| 20260506014612 | 26 | 114 | 6.4 | 14.5 | 0.00 | 0.00 | 0.00 | 81 | 1006.7 |
| 20260506014116 | 26 | 118 | 8.0 | 14.5 | 0.00 | 0.00 | 0.00 | 80 | 1006.8 |
| 20260506013616 | 26 | 120 | 8.0 | 14.5 | 0.00 | 0.00 | 0.00 | 80 | 1006.8 |
| 20260506013115 | 26 | 123 | 8.0 | 17.7 | 0.00 | 0.00 | 0.00 | 80 | 1006.7 |
| 20260506012611 | 26 | 130 | 8.0 | 17.7 | 0.00 | 0.00 | 0.00 | 79 | 1006.9 |
| 20260506012125 | 26 | 0 | 8.0 | 16.1 | 0.00 | 0.00 | 0.00 | 79 | 1006.8 |
| 20260506011618 | 27 | 134 | 8.0 | 14.5 | 0.00 | 0.00 | 0.00 | 78 | 1007.0 |
| 20260506011608 | 27 | 138 | 8.0 | 12.9 | 0.00 | 0.00 | 0.00 | 78 | 1006.8 |
| 20260506011045 | 27 | 127 | 6.4 | 14.5 | 0.00 | 0.00 | 0.00 | 77 | 1006.9 |
| 20260506010458 | 27 | 142 | 4.8 | 11.3 | 0.00 | 0.00 | 0.00 | 76 | 1006.9 |
| 20260506010440 | 27 | 148 | 4.8 | 11.3 | 0.00 | 0.00 | 0.00 | 76 | 1007.0 |
| 20260506010356 | 27 | 172 | 4.8 | 12.9 | 0.00 | 0.00 | 0.00 | 75 | 1006.9 |
| 20260506010339 | 27 | 133 | 6.4 | 11.3 | 0.00 | 0.00 | 0.00 | 77 | 1006.8 |
| 20260506010300 | 28 | 151 | 4.8 | 12.9 | 0.00 | 0.00 | 0.00 | 74 | 1007.0 |
| 20260506010224 | 28 | 132 | 6.4 | 14.5 | 0.00 | 0.00 | 0.00 | 74 | 1006.9 |
| 20260506010139 | 28 | 173 | 9.7 | 16.1 | 0.00 | 0.00 | 0.00 | 73 | 1006.6 |
| 20260506010111 | 27 | 133 | 6.4 | 11.3 | 0.00 | 0.00 | 0.00 | 77 | 1006.8 |
| 20260506010029 | 27 | 0 | 6.4 | 12.9 | 0.00 | 0.00 | 0.00 | 76 | 1006.7 |
| 20260506005930 | 27 | 141 | 4.8 | 12.9 | 0.00 | 0.00 | 0.00 | 76 | 1006.7 |
| 20260506005808 | 27 | 130 | 6.4 | 11.3 | 0.00 | 0.00 | 0.00 | 76 | 1006.8 |
| 20260506001320 | 28 | 146 | 4.8 | 14.5 | 0.00 | 0.00 | 0.00 | 74 | 1007.0 |
| 20260506000542 | 28 | 182 | 4.8 | 11.3 | 0.00 | 0.00 | 0.00 | 75 | 1006.8 |
| 20260506000519 | 28 | 121 | 6.4 | 14.5 | 0.00 | 0.00 | 0.00 | 74 | 1006.7 |
| 20260505235743 | 28 | 181 | 9.7 | 22.5 | 0.00 | 0.00 | 0.00 | 71 | 1006.7 |
| 20260505235522 | 28 | 157 | 8.0 | 17.7 | 0.00 | 0.00 | 0.00 | 74 | 1006.6 |
| 20260505235316 | 28 | 150 | 9.7 | 19.3 | 0.00 | 0.00 | 0.00 | 72 | 1006.6 |
| 20260505235001 | 28 | 150 | 8.0 | 17.7 | 0.00 | 0.00 | 0.00 | 74 | 1006.6 |
| 20260505234956 | 28 | 138 | 8.0 | 19.3 | 0.00 | 0.00 | 0.00 | 73 | 1006.5 |
| 20260505234244 | 28 | 166 | 9.7 | 19.3 | 0.00 | 0.00 | 0.00 | 73 | 1006.5 |
| 20260505231431 | 28 | 0 | 8.0 | 22.5 | 0.00 | 0.00 | 0.00 | 72 | 1006.7 |
| 20260505230928 | 28 | 196 | 9.7 | 20.9 | 0.00 | 0.00 | 0.00 | 72 | 1006.7 |
| 20260505230648 | 28 | 180 | 9.7 | 20.9 | 0.00 | 0.00 | 0.00 | 71 | 1006.5 |
| 20260505230155 | 28 | 167 | 8.0 | 12.9 | 0.00 | 0.00 | 0.00 | 71 | 1006.4 |
| 20260505225416 | 29 | 150 | 11.3 | 0.0 | 0.00 | 0.00 | 0.00 | 70 | 1006.6 |
| 20260505224925 | 29 | 142 | 9.7 | 17.7 | 0.00 | 0.00 | 0.00 | 70 | 1006.4 |